Regional Weather Roundup
Issued by NWS

Home | Current Version | Previous Version | Text Only | Print | Product List | Glossary Off
Versions: 1 2 3 4 5 6 7 8 9 10 11 12 13 14 15 16 17 18 19 20 21 22 23 24 25 26 27 28 29 30 31 32 33 34 35 36 37 38 39 40 41 42 43 44 45 46 47 48 49 50

000
ASUS43 KLSX 240707
RWRMO

WEATHER SUMMARY FOR MISSOURI
NATIONAL WEATHER SERVICE SPRINGFIELD MO
200 AM CDT WED MAY 24 2017

NOTE: "FAIR" INDICATES FEW OR NO CLOUDS BELOW 12,000 FEET WITH NO
       SIGNIFICANT WEATHER AND/OR OBSTRUCTIONS TO VISIBILITY.
       CURRENT SKY AND/OR WEATHER CONDITIONS ARE NOT AVAILABLE FOR
       CHILLICOTHE AND FARMINGTON.

MOZ001>031-035>038-043-044-053-054-240800-
...NORTHERN AND WESTERN MISSOURI...

CITY           SKY/WX    TMP DP  RH WIND       PRES   REMARKS
KANSAS CTY INT PTCLDY    49  46  90 NW7       29.76F
KANSAS C DTWN  MOCLDY    52  48  86 W3        29.76F
LEE`S SUMMIT   MOCLDY    50  49  96 NW6       29.76F
ST JOSEPH      CLEAR     49  47  93 NW7       29.77F
CHILLICOTHE      N/A     49  46  90 CALM      29.74F
KIRKSVILLE     CLEAR     46  44  93 W6        29.70F

$$
MOZ066>068-077>081-088>096-101>105-240800-
...SOUTHWEST MISSOURI...

CITY           SKY/WX    TMP DP  RH WIND       PRES   REMARKS
SPRINGFIELD    CLOUDY    55  49  80 NW7       29.73F
JOPLIN         CLOUDY    55  51  86 NW7       29.77F
BRANSON        CLOUDY    54  48  82 NW6       29.73F

$$
MOZ032>034-039>042-045>050-055>058-069>072-240800-
...CENTRAL MISSOURI...

CITY           SKY/WX    TMP DP  RH WIND       PRES   REMARKS
COLUMBIA       CLOUDY    53  48  83 NW7       29.70F
JEFFERSON CITY CLOUDY    55  48  77 NW5       29.70F
ROLLA          CLEAR     50  48  93 NW3       29.68F
SEDALIA        CLOUDY    55  51  86 NW6       29.73F
WHITEMAN AFB   MOCLDY    54  54 100 NW9       29.72F
WARRENSBURG    CLOUDY    52  46  82 NW6       29.74F
OSAGE BEACH    CLOUDY    54  48  80 CALM      29.72F

$$
MOZ051-052-059>065-240800-
...EAST CENTRAL MISSOURI...

CITY           SKY/WX    TMP DP  RH WIND       PRES   REMARKS
ST LOUIS INTL  MOCLDY    58  52  80 NW5       29.66F
SPIRIT OF STL  PTCLDY    52  52 100 CALM      29.66F
ST CHARLES     PTCLDY    55  51  86 N6        29.66F

$$
MOZ072>076-082>087-097>100-106>115-240800-
...SOUTH CENTRAL AND SOUTHEAST MISSOURI...

CITY           SKY/WX    TMP DP  RH WIND       PRES   REMARKS
CAPE GIRARDEAU CLOUDY    59  54  83 N3        29.64F
FARMINGTON     CLOUDY    57  51  80 VRB5      29.66F
POPLAR BLUFF     N/A     59  57  93 NW6       29.64F
WEST PLAINS    PTCLDY    52  49  89 W3        29.70F

$$



USA.gov is the U.S. government's official web portal to all federal, state and local government web resources and services.